This is the latest recevied weather packets stored in our database for station/object K42C. If no packets are shown the sender has not sent any weather packets the latest 1 day(s).
| Time | Temp. | Humidity | Pressure | Rain* | Wind** | Luminosity | Snow |
|---|---|---|---|---|---|---|---|
| 1836274310 | 16.67° C | 93% | 983.5 hPa | 0 mm | 3.58 m/s, 89° | - | - |
| 1836274261 | 17.22° C | 93% | 983.4 hPa | 0 mm | 3.13 m/s, 117° | - | - |
| 1778044559 | 3.89° C | 81% | 974.8 hPa | 0 mm | 0 m/s | - | - |
| 1778044162 | 3.89° C | 79% | 974.7 hPa | 0 mm | 0 m/s | - | - |
| 1778043761 | 4.44° C | 78% | 974.3 hPa | 0 mm | 0 m/s | - | - |
| 1778043363 | 4.44° C | 78% | 974.1 hPa | 0 mm | 0 m/s | - | - |
| 1778042962 | 4.44° C | 78% | 974.2 hPa | 0 mm | 0 m/s | - | - |
| 1778042565 | 4.44° C | 76% | 974.2 hPa | 0 mm | 0 m/s | - | - |
| 1778042164 | 5° C | 74% | 974.2 hPa | 0 mm | 0 m/s | - | - |
| 1778041766 | 5° C | 73% | 974.3 hPa | 0 mm | 0 m/s | - | - |
| 1778041365 | 5° C | 72% | 974.4 hPa | 0 mm | 0 m/s | - | - |
| 1778040968 | 5° C | 72% | 974.3 hPa | 0 mm | 0 m/s | - | - |
| 1778040567 | 5° C | 72% | 974.2 hPa | 0 mm | 0 m/s | - | - |
| 1778040169 | 5.56° C | 72% | 974.2 hPa | 0 mm | 0 m/s | - | - |
| 1778039768 | 5.56° C | 71% | 974.1 hPa | 0 mm | 0 m/s | - | - |
| 1778039371 | 5.56° C | 69% | 974.1 hPa | 0 mm | 0 m/s | - | - |
| 1778038970 | 6.11° C | 67% | 974.1 hPa | 0 mm | 0 m/s | - | - |
| 1778038572 | 6.11° C | 66% | 974.3 hPa | 0 mm | 0 m/s | - | - |
| 1778037774 | 6.67° C | 64% | 974.2 hPa | 0 mm | 0 m/s | - | - |
| 1778037373 | 6.67° C | 63% | 974.1 hPa | 0 mm | 0 m/s | - | - |
| 1778036976 | 7.22° C | 62% | 974.1 hPa | 0 mm | 0 m/s | - | - |
| 1778036575 | 7.22° C | 62% | 974 hPa | 0 mm | 0 m/s | - | - |
| 1778036177 | 7.78° C | 60% | 973.9 hPa | 0 mm | 0 m/s | - | - |
| 1778035776 | 7.78° C | 59% | 973.9 hPa | 0 mm | 0 m/s | - | - |
| 1778035379 | 7.78° C | 59% | 973.8 hPa | 0 mm | 0 m/s | - | - |
* Rain latest hour (hover to see other rain measurements)
** Current wind speed in m/s (hover to see current wind gust speed)